{"data":{"norad_id":47747,"intl_designator":"2021-017AB","name":"STARLINK-2161","alt_names":[],"object_type":"PAYLOAD","status":"ACTIVE","operator":null,"country":"US","launch_date":"2021-03-04","launch_site_code":"AFETR","launch_vehicle":null,"mission":null,"orbit_class":"UNKNOWN","rcs_meters":null,"size_class":null,"mass_kg":null,"dimensions":null,"purposes":["comms"],"wikipedia_slug":null,"has_3d_model":false,"image_url":null,"decayed_at":null,"tle_current":{"epoch":"2026-05-25T02:55:19.123104Z","epoch_age_seconds":78709,"freshness":"FRESH","line1":"1 47747U 21017AB  26145.12174911 -.00000103  00000+0  84534-5 0  9997","line2":"2 47747  53.1586 198.4071 0001130  85.9514 274.1617 15.31698203289720","mean_motion":15.31698203,"eccentricity":0.000113,"inclination_deg":53.1586,"raan_deg":198.4071,"arg_perigee_deg":85.9514,"mean_anomaly_deg":274.1617,"bstar":8.4534e-6,"rev_number":28972,"period_min":94.013298258077,"perigee_km":469.9714282886,"apogee_km":471.51927570015,"semimajor_km":6848.8823519944,"source":"CELESTRAK","updated_at":"2026-05-25T13:38:16.567025Z"}}}